This is the latest recevied weather packets stored in our database for station/object EB1BCG-1. If no packets are shown the sender has not sent any weather packets the latest 10 day(s).
| Time | Temp. | Humidity | Pressure | Rain* | Wind** | Luminosity | Snow |
|---|---|---|---|---|---|---|---|
| 1777362581 | 14.44° C | 84% | 1013.5 hPa | 0 mm | 0 m/s | - | - |
| 1777361972 | 12.78° C | 84% | 1013.4 hPa | 0 mm | 0 m/s | - | - |
| 1777361368 | 12.78° C | 95% | 1013.5 hPa | 0 mm | 0 m/s | - | - |
| 1777360758 | 12.78° C | 99% | 1013.5 hPa | 0 mm | 0 m/s | - | - |
| 1777360151 | 12.22° C | 99% | 1013.5 hPa | 0 mm | 0 m/s | - | - |
| 1777359548 | 11.67° C | 99% | 1013.5 hPa | 0 mm | 0 m/s | - | - |
| 1777358937 | 11.67° C | 99% | 1013.5 hPa | 0 mm | 0 m/s | - | - |
| 1777358330 | 11.11° C | 99% | 1013.5 hPa | 0 mm | 0 m/s | - | - |
| 1777357115 | 9.44° C | 99% | 1013.5 hPa | 0 mm | 0 m/s | - | - |
| 1777356513 | 8.89° C | 99% | 1013.4 hPa | 0 mm | 0 m/s | - | - |
| 1777355901 | 8.33° C | 99% | 1013.5 hPa | 0 mm | 0 m/s | - | - |
| 1777355293 | 8.33° C | 99% | 1013.6 hPa | 0 mm | 0 m/s | - | - |
| 1777354686 | 7.78° C | 99% | 1013.6 hPa | 0 mm | 0 m/s | - | - |
| 1777354079 | 7.78° C | 99% | 1013.5 hPa | 0 mm | 0 m/s | - | - |
| 1777353472 | 7.78° C | 99% | 1013.6 hPa | 0 mm | 0 m/s | - | - |
| 1777352865 | 8.33° C | 99% | 1013.6 hPa | 0 mm | 0 m/s | - | - |
| 1777352258 | 8.89° C | 99% | 1013.7 hPa | 0 mm | 0 m/s | - | - |
| 1777351653 | 8.89° C | 99% | 1013.7 hPa | 0 mm | 0 m/s | - | - |
| 1777351044 | 8.89° C | 99% | 1013.8 hPa | 0 mm | 0 m/s | - | - |
| 1777350439 | 8.89° C | 99% | 1013.7 hPa | 0 mm | 0 m/s | - | - |
| 1777349832 | 8.89° C | 99% | 1013.9 hPa | 0 mm | 0 m/s | - | - |
| 1777349222 | 8.89° C | 99% | 1014.1 hPa | 0 mm | 0 m/s | - | - |
| 1777348615 | 8.89° C | 99% | 1014.1 hPa | 0 mm | 0 m/s | - | - |
| 1777348011 | 9.44° C | 99% | 1014.1 hPa | 0 mm | 0 m/s | - | - |
| 1777347401 | 9.44° C | 99% | 1014.1 hPa | 0 mm | 0 m/s | - | - |
* Rain latest hour (hover to see other rain measurements)
** Current wind speed in m/s (hover to see current wind gust speed)